• In Deutschland
  • Länderverzeichnis
  • Für 7 Tage
  • Wassertemperatur
  • Satellitenkarten
  • Wetterkarte
  • Widgets
  • user-avatar
    Anmelden

    Stündliche Wetter Belmopan

    Heute, 18 Januar, Donnerstag

    Zeit Temperatur Niederschläge Wind Luftdruck Luftfeuchtigkeit
    00:00 +19°C° 0 mm 2 m/S 760 mmHg 81%
    01:00 +19°C° 0,2 mm 2 m/S 760 mmHg 85%
    02:00 +18°C° 0,2 mm 2 m/S 759 mmHg 90%
    03:00 +18°C° 0,2 mm 2 m/S 759 mmHg 95%
    04:00 +18°C° 0,2 mm 2 m/S 759 mmHg 95%
    05:00 +18°C° 0,2 mm 2 m/S 759 mmHg 95%
    06:00 +18°C° 0,2 mm 2 m/S 759 mmHg 96%
    07:00 +19°C° 0,1 mm 1 m/S 760 mmHg 95%
    08:00 +20°C° 0,1 mm 1 m/S 760 mmHg 95%
    09:00 +20°C° 0,1 mm 1 m/S 760 mmHg 94%
    10:00 +21°C° 0,2 mm 1 m/S 760 mmHg 92%
    11:00 +21°C° 0,2 mm 1 m/S 760 mmHg 89%
    12:00 +22°C° 0,2 mm 1 m/S 760 mmHg 87%
    13:00 +22°C° 0,3 mm 1 m/S 759 mmHg 89%
    14:00 +22°C° 0,3 mm 1 m/S 759 mmHg 90%
    15:00 +22°C° 0,3 mm 1 m/S 758 mmHg 92%
    16:00 +22°C° 0,8 mm 1 m/S 758 mmHg 94%
    17:00 +21°C° 0,8 mm 1 m/S 758 mmHg 96%
    18:00 +21°C° 0,8 mm 1 m/S 758 mmHg 99%
    19:00 +21°C° 1,8 mm 1 m/S 758 mmHg 99%
    20:00 +21°C° 1,8 mm 1 m/S 759 mmHg 99%
    21:00 +21°C° 1,8 mm 1 m/S 759 mmHg 99%
    22:00 +21°C° 0,8 mm 1 m/S 759 mmHg 98%
    23:00 +21°C° 0,8 mm 1 m/S 759 mmHg 98%

    Morgen, 19 Januar, Freitag

    Zeit Temperatur Niederschläge Wind Luftdruck Luftfeuchtigkeit
    00:00 +21°C° 0,8 mm 1 m/S 759 mmHg 98%
    01:00 +21°C° 0,1 mm 1 m/S 758 mmHg 98%
    02:00 +20°C° 0,1 mm 1 m/S 758 mmHg 98%
    03:00 +20°C° 0,1 mm 1 m/S 758 mmHg 98%
    04:00 +20°C° 0,1 mm 1 m/S 758 mmHg 98%
    05:00 +20°C° 0,1 mm 1 m/S 758 mmHg 98%
    06:00 +19°C° 0,1 mm 1 m/S 758 mmHg 98%
    07:00 +20°C° 0 mm 1 m/S 758 mmHg 97%
    08:00 +20°C° 0 mm 1 m/S 759 mmHg 96%
    09:00 +20°C° 0 mm 1 m/S 759 mmHg 94%
    10:00 +21°C° 0,1 mm 1 m/S 759 mmHg 91%
    11:00 +22°C° 0,1 mm 1 m/S 759 mmHg 87%
    12:00 +23°C° 0,1 mm 1 m/S 758 mmHg 84%
    13:00 +24°C° 0,1 mm 1 m/S 758 mmHg 82%
    14:00 +24°C° 0,1 mm 1 m/S 757 mmHg 81%
    15:00 +24°C° 0,1 mm 2 m/S 756 mmHg 79%
    16:00 +24°C° 0 mm 1 m/S 756 mmHg 81%
    17:00 +23°C° 0 mm 1 m/S 756 mmHg 84%
    18:00 +22°C° 0 mm 1 m/S 756 mmHg 86%
    19:00 +21°C° 0 mm 1 m/S 757 mmHg 89%
    20:00 +21°C° 0 mm 1 m/S 757 mmHg 92%
    21:00 +20°C° 0 mm 1 m/S 757 mmHg 95%
    22:00 +20°C° 0 mm 1 m/S 757 mmHg 96%
    23:00 +20°C° 0 mm 1 m/S 757 mmHg 96%

    übermorgen, 20 Januar, Samstag

    Zeit Temperatur Niederschläge Wind Luftdruck Luftfeuchtigkeit
    00:00 +20°C° 0 mm 1 m/S 757 mmHg 97%
    01:00 +20°C° 0 mm 1 m/S 756 mmHg 97%
    02:00 +20°C° 0 mm 1 m/S 756 mmHg 96%
    03:00 +20°C° 0 mm 1 m/S 755 mmHg 96%
    04:00 +20°C° 0 mm 1 m/S 755 mmHg 96%
    05:00 +20°C° 0 mm 1 m/S 755 mmHg 96%
    06:00 +20°C° 0 mm 1 m/S 755 mmHg 97%
    07:00 +21°C° 0 mm 1 m/S 756 mmHg 91%
    08:00 +23°C° 0 mm 1 m/S 756 mmHg 85%
    09:00 +24°C° 0 mm 1 m/S 757 mmHg 79%
    10:00 +25°C° 0 mm 1 m/S 756 mmHg 74%
    11:00 +27°C° 0 mm 1 m/S 756 mmHg 68%
    12:00 +28°C° 0 mm 2 m/S 756 mmHg 62%
    13:00 +28°C° 0 mm 2 m/S 755 mmHg 62%
    14:00 +28°C° 0 mm 2 m/S 754 mmHg 62%
    15:00 +28°C° 0 mm 2 m/S 753 mmHg 63%
    16:00 +27°C° 0 mm 1 m/S 753 mmHg 69%
    17:00 +26°C° 0 mm 1 m/S 753 mmHg 76%
    18:00 +25°C° 0 mm 1 m/S 754 mmHg 82%
    19:00 +24°C° 0,1 mm 1 m/S 754 mmHg 87%
    20:00 +23°C° 0,1 mm 1 m/S 755 mmHg 91%
    21:00 +23°C° 0,1 mm 1 m/S 755 mmHg 95%
    22:00 +23°C° 0,3 mm 1 m/S 755 mmHg 96%
    23:00 +23°C° 0,3 mm 1 m/S 755 mmHg 97%

    21 Januar, Sonntag

    Zeit Temperatur Niederschläge Wind Luftdruck Luftfeuchtigkeit
    00:00 +23°C° 0,3 mm 1 m/S 755 mmHg 98%
    01:00 +23°C° 0,2 mm 1 m/S 754 mmHg 98%
    02:00 +23°C° 0,2 mm 1 m/S 754 mmHg 99%
    03:00 +21°C° 0,2 mm 0 m/S 753 mmHg 99%
    04:00 +21°C° 0 mm 0 m/S 753 mmHg 99%
    05:00 +21°C° 0 mm 0 m/S 753 mmHg 99%
    06:00 +21°C° 0 mm 0 m/S 753 mmHg 99%
    07:00 +22°C° 0,1 mm 0 m/S 754 mmHg 97%
    08:00 +23°C° 0,1 mm 0 m/S 754 mmHg 95%
    09:00 +24°C° 0,1 mm 0 m/S 754 mmHg 93%
    10:00 +27°C° 0,3 mm 1 m/S 754 mmHg 87%
    11:00 +28°C° 0,3 mm 1 m/S 754 mmHg 81%
    12:00 +29°C° 0,3 mm 1 m/S 753 mmHg 75%
    13:00 +29°C° 1,1 mm 1 m/S 752 mmHg 77%
    14:00 +29°C° 1,1 mm 1 m/S 751 mmHg 79%
    15:00 +29°C° 1,1 mm 1 m/S 751 mmHg 81%
    16:00 +28°C° 0,3 mm 1 m/S 751 mmHg 85%
    17:00 +26°C° 0,3 mm 1 m/S 751 mmHg 88%
    18:00 +25°C° 0,3 mm 1 m/S 751 mmHg 92%
    19:00 +25°C° 0 mm 1 m/S 752 mmHg 94%
    20:00 +24°C° 0 mm 1 m/S 752 mmHg 96%
    21:00 +24°C° 0 mm 1 m/S 753 mmHg 98%
    22:00 +24°C° 0 mm 1 m/S 752 mmHg 99%
    23:00 +23°C° 0 mm 1 m/S 752 mmHg 99%

    22 Januar, Montag

    Zeit Temperatur Niederschläge Wind Luftdruck Luftfeuchtigkeit
    00:00 +21°C° 0 mm 0 m/S 752 mmHg 99%
    01:00 +21°C° 0,1 mm 0 m/S 752 mmHg 99%
    02:00 +22°C° 0,1 mm 0 m/S 751 mmHg 99%
    03:00 +22°C° 0,1 mm 0 m/S 751 mmHg 99%
    04:00 +22°C° 0,1 mm 0 m/S 751 mmHg 99%
    05:00 +22°C° 0,1 mm 0 m/S 752 mmHg 99%
    06:00 +22°C° 0,1 mm 0 m/S 752 mmHg 99%
    07:00 +25°C° 0,1 mm 1 m/S 753 mmHg 97%
    08:00 +26°C° 0,1 mm 1 m/S 753 mmHg 94%
    09:00 +26°C° 0,1 mm 1 m/S 754 mmHg 92%
    10:00 +27°C° 0,4 mm 1 m/S 753 mmHg 87%
    11:00 +28°C° 0,4 mm 1 m/S 753 mmHg 82%
    12:00 +29°C° 0,4 mm 2 m/S 753 mmHg 76%
    13:00 +29°C° 1,1 mm 2 m/S 752 mmHg 77%
    14:00 +29°C° 1,1 mm 2 m/S 751 mmHg 77%
    15:00 +29°C° 1,1 mm 2 m/S 751 mmHg 78%
    16:00 +28°C° 0,2 mm 2 m/S 751 mmHg 82%
    17:00 +27°C° 0,2 mm 1 m/S 751 mmHg 87%
    18:00 +26°C° 0,2 mm 1 m/S 752 mmHg 91%
    19:00 +25°C° 0 mm 1 m/S 752 mmHg 94%
    20:00 +24°C° 0 mm 1 m/S 753 mmHg 96%
    21:00 +24°C° 0 mm 1 m/S 753 mmHg 99%
    22:00 +24°C° 0,1 mm 1 m/S 753 mmHg 99%
    23:00 +24°C° 0,1 mm 1 m/S 753 mmHg 99%

    23 Januar, Dienstag

    Zeit Temperatur Niederschläge Wind Luftdruck Luftfeuchtigkeit
    00:00 +22°C° 0,1 mm 0 m/S 753 mmHg 99%
    01:00 +22°C° 0,1 mm 0 m/S 752 mmHg 99%
    02:00 +22°C° 0,1 mm 0 m/S 752 mmHg 99%
    03:00 +22°C° 0,1 mm 0 m/S 752 mmHg 99%
    04:00 +22°C° 0,5 mm 0 m/S 752 mmHg 99%
    05:00 +22°C° 0,5 mm 0 m/S 753 mmHg 99%
    06:00 +22°C° 0,5 mm 0 m/S 753 mmHg 99%
    07:00 +23°C° 0,8 mm 0 m/S 754 mmHg 97%
    08:00 +25°C° 0,8 mm 1 m/S 754 mmHg 95%
    09:00 +26°C° 0,8 mm 1 m/S 755 mmHg 94%
    10:00 +27°C° 0,6 mm 1 m/S 754 mmHg 90%
    11:00 +27°C° 0,6 mm 1 m/S 754 mmHg 87%
    12:00 +28°C° 0,6 mm 2 m/S 754 mmHg 84%
    13:00 +28°C° 0,8 mm 2 m/S 753 mmHg 85%
    14:00 +28°C° 0,8 mm 2 m/S 752 mmHg 86%
    15:00 +28°C° 0,8 mm 2 m/S 752 mmHg 87%
    16:00 +26°C° 0,3 mm 1 m/S 752 mmHg 90%
    17:00 +25°C° 0,3 mm 1 m/S 752 mmHg 93%
    18:00 +24°C° 0,3 mm 1 m/S 753 mmHg 96%
    19:00 +22°C° 0 mm 0 m/S 753 mmHg 97%
    20:00 +22°C° 0 mm 0 m/S 754 mmHg 98%
    21:00 +21°C° 0 mm 0 m/S 754 mmHg 98%
    22:00 +21°C° 0 mm 0 m/S 754 mmHg 99%
    23:00 +21°C° 0 mm 0 m/S 754 mmHg 99%
    Mehr zeigen